Simultaneous Nadir Overpasses (SNOs) Predictions

Prediction of SNOs between AURA and NPP Satellite Orbit:

Table of predicted SNOs for the next 14.0 days since TLE Epoch: 3/9/2024
Index Date (AURA) Time (AURA) Lat,Lon (AURA) SZA (AURA ) Date (NPP) Time (NPP) Lat,Lon (NPP) SZA (NPP ) Distance(km) Time Diff (sec)
1 03/10/2024 15:07:18 -80.37, 38.74 85.14 03/10/2024 15:06:35 -80.37, 38.62 85.09 2.37 43
2 03/10/2024 15:56:37 80.51,-152.20 94.61 03/10/2024 15:57:14 80.51,-152.17 94.58 0.56 37
3 03/13/2024 04:52:52 79.70, 6.69 94.92 03/13/2024 04:51:38 79.81, 6.44 94.99 12.96 74
4 03/13/2024 05:41:54 -80.48,-178.82 86.37 03/13/2024 05:41:59 -80.48,-178.79 86.38 0.57 5
5 03/15/2024 19:27:08 80.45, 154.61 92.65 03/15/2024 19:26:43 80.46, 154.74 92.64 2.62 25
6 03/15/2024 20:16:31 -80.52, -37.08 87.49 03/15/2024 20:17:26 -80.51, -37.21 87.50 2.47 55
7 03/18/2024 09:12:23 -80.41, 127.92 88.33 03/18/2024 09:11:28 -80.42, 128.08 88.31 3.05 55
8 03/18/2024 10:01:43 80.51, -63.41 91.49 03/18/2024 10:02:09 80.51, -63.41 91.47 0.08 26



Historial Predications of SNOs between AURA and NPP
